Back to catalog

CZ-3B R/B

AliveHEO
NORAD 55687·ROCKET BODY·🇨🇳 China

Launched Feb 23, 2023 from Xichang Satellite Launch Center

Loading…

Next Passes (next 24 hours)

TLE

FreshSource: Space-Track

Epoch: Sep 14, 2026, 20:46 UTC

1 55687U 23023B   26257.86586849  .00080081  72240-6  17610-2 0  9992
2 55687  27.5812  38.8276 6425373 167.5413 222.8662  3.49445820 37365

Track CZ-3B R/B in real time with AllMySat

Download on the App Store